This demonstration page uses our WeatherBlox Daily Observations layout. Learn more.

39.92423, -83.80882

Hourly Observations for July 16, 2018

Temp ( °F °C ) Dew Point ( °F °C ) Humidity (%) Winds ( mph kmh ) Pressure ( in mb ) Visibility ( mi km ) Precip ( " mm )
12:56 am 00:56 Clear 71 21.7 69 20.6 94 94 ESE 3 6 30 1016 10 16.0934 0 0
1:56 am 01:56 Clear 73 22.8 70 21.1 90 90 S 3 6 30 1016 10 16.0934 0 0
2:56 am 02:56 Mostly Clear with Mist and Fog 72 22.2 71 21.7 97 97 S 3 6 29.99 1016 6 9.65604 0 0
3:56 am 03:56 Mostly Clear with Mist and Fog 72 22.2 72 22.2 100 100 SW 6 9 29.98 1015 2.5 4.02335 0 0
4:08 am 04:08 Mostly Clear with Mist and Fog 72 22 72 22 100 100 SW 5 7 29.97 1015 3 4.82802 0 0
4:56 am 04:56 Mostly Clear with Mist and Fog 72 22.2 72 22.2 100 100 SSW 5 7 29.98 1015 4 6.43736 0 0
5:56 am 05:56 Mostly Clear with Mist and Fog 72 22.2 72 22.2 100 100 SW 3 6 29.98 1015 2.5 4.02335 0 0
6:20 am 06:20 Mostly Clear with Mist and Fog 72 22 72 22 100 100 Calm 29.97 1015 1.5 2.41401 0 0
6:56 am 06:56 Partly Cloudy with Mist and Fog 71 21.7 71 21.7 100 100 SW 3 6 29.98 1015 1 1.60934 0 0
7:17 am 07:17 Partly Cloudy with Mist and Fog 72 22 72 22 100 100 Calm 29.97 1015 1.25 2.011675 0 0
7:56 am 07:56 Partly Cloudy with Mist and Fog 73 22.8 73 22.8 100 100 SW 3 6 29.98 1015 2 3.21868 0 0
8:16 am 08:16 Partly Cloudy with Mist and Fog 73 23 73 23 100 100 SSW 3 6 29.97 1015 3 4.82802 0 0
8:56 am 08:56 Partly Cloudy with Mist and Fog 75 23.9 75 23.9 100 100 Calm 29.98 1015 6 9.65604 0 0
9:56 am 09:56 Sunny 78 25.6 75 23.9 90 90 VRB 3 6 29.98 1015 10 16.0934 0 0
10:56 am 10:56 Sunny 79 26.1 74 23.3 85 85 VRB 3 6 29.99 1016 10 16.0934 0 0
11:56 am 11:56 Sunny 82 27.8 74 23.3 77 77 S 6 9 29.98 1015 10 16.0934 0 0
12:56 pm 12:56 Partly Cloudy with Light Rain 79 26.1 73 22.8 82 82 S 7 11 29.97 1015 10 16.0934 0 0.0254
1:56 pm 13:56 Sunny 85 29.4 74 23.3 70 70 SSW 6 9 29.93 1014 10 16.0934 0 0.0254
2:56 pm 14:56 Sunny 86 30 74 23.3 67 67 SW 9 15 29.91 1013 10 16.0934 0 0
3:56 pm 15:56 Partly Cloudy with Rain 75 23.9 73 22.8 94 94 WNW 18 30 29.92 1013 7 11.26538 0.01 0.254
4:56 pm 16:56 Sunny 78 25.6 74 23.3 87 87 Calm 29.9 1013 10 16.0934 0.15 3.81
5:56 pm 17:56 Sunny 81 27.2 76 24.4 85 85 WNW 3 6 29.89 1012 10 16.0934 0 0
6:56 pm 18:56 Sunny 81 27.2 76 24.4 85 85 WNW 5 7 29.89 1012 9 14.48406 0 0
7:56 pm 19:56 Sunny 76 24.4 73 22.8 91 91 SW 5 7 29.89 1012 10 16.0934 0 0.0254
8:56 pm 20:56 Partly Cloudy with Mist and Fog 74 23.3 74 23.3 100 100 WSW 5 7 29.89 1012 6 9.65604 0 0
9:56 pm 21:56 Clear 73 22.8 72 22.2 96 96 WSW 5 7 29.91 1013 10 16.0934 0 0
10:56 pm 22:56 Clear 72 22.2 71 21.7 97 97 SW 5 7 29.92 1013 10 16.0934 0 0
11:56 pm 23:56 Clear 71 21.7 71 21.7 100 100 W 6 9 29.92 1013 10 16.0934 0 0

Powered by AerisWeather